Voltar ao catálogo

CZ-4 DEB

AtivoSSO
NORAD 20883·DEBRIS·🇨🇳 China

Lançado Sep 3, 1990 de Taiyuan Satellite Launch Center

Loading…

Próximas Passagens (próximas 24 horas)

TLE

AtualizadoSource: Space-Track

Época: Sep 14, 2026, 11:23 UTC

1 20883U 90081AT  26257.47487839  .00001413  00000-0  47377-3 0  9991
2 20883  98.5961 257.2053 0012703  99.7557  61.4377 14.38795428863174

Acompanhe CZ-4 DEB em tempo real com AllMySat

Download on the App Store